Regional Weather Roundup
Issued by NWS Cleveland, OH

Home | Current Version | Previous Version | Text Only | Print | Product List | Glossary Off
Versions: 1 2 3 4 5 6 7 8 9 10 11 12 13 14 15 16 17 18 19 20 21 22 23 24 25 26 27 28 29 30 31 32 33 34 35 36 37 38 39 40 41 42 43 44 45 46 47 48 49 50

436
ASUS41 KCLE 261012
RWRCLE
OHIO REGIONAL WEATHER ROUNDUP
NATIONAL WEATHER SERVICE WILMINGTON, OH
600 AM EDT SAT MAY 26 2018

NOTE: "FAIR" INDICATES FEW OR NO CLOUDS BELOW 12,000 FEET WITH NO
SIGNIFICANT WEATHER AND/OR OBSTRUCTIONS TO VISIBILITY.

OHZ001>008-015>018-024>027-034-035-043-044-261100-
   NORTHWEST OHIO

CITY           SKY/WX    TMP DP  RH WIND       PRES   REMARKS
DEFIANCE       FAIR      68  60  75 S3        29.80R
FINDLAY        FAIR      70  59  68 SW5       29.80S
TOLEDO EXPRESS FAIR      62  60  93 S3        29.79R
TOLEDO EXEC    FAIR      68  57  68 S3        29.80R
LIMA           MOCLDY    70  59  68 S5        29.82S
$$

OHZ009>014-019>023-028>033-038-089-261100-
   NORTHEAST OHIO

CITY           SKY/WX    TMP DP  RH WIND       PRES   REMARKS
CLE-HOPKINS    FAIR      68  54  60 S8        29.83S
CLE-LAKEFRONT  FAIR      71  53  52 S12       29.79F
CUY CO. ARPT   NOT AVBL
LORAIN-ELYRIA  FAIR      61  51  70 VRB6      29.82S
ASHTABULA      FAIR      60  55  83 CALM      29.83F
AKRON-CANTON   FAIR      63  55  75 S6        29.85F
WOOSTER        FAIR      60  56  86 CALM      29.86S
MANSFIELD      FAIR      63  56  78 S6        29.85S
YOUNGSTOWN     FAIR      63  57  81 S3        29.85S
$$

OHZ042-051>053-060>062-070>072-077>081-261100-
  SOUTHWEST OHIO

CITY           SKY/WX    TMP DP  RH WIND       PRES   REMARKS
CINC-COVINGTON MOCLDY    68  61  78 S5        29.86R
CINC-LUNKEN    FAIR      64  64 100 CALM      29.86R
HAMILTON       FAIR      66  65  96 CALM      29.85F
DAYTON         CLOUDY    71  61  70 S7        29.85F
WRIGHT-PAT AFB MOCLDY    67  61  81 CALM      29.84F
DAYTON GENERAL FAIR      69  59  70 S3        29.84F
WILMINGTON     FAIR      65  62  90 CALM      29.86S
$$

OHZ036-037-039>041-045>050-054>059-063>069-073>076-082>088-261100-
  CENTRAL AND SOUTHEAST OHIO

CITY           SKY/WX    TMP DP  RH WIND       PRES   REMARKS
COLUMBUS       FAIR      65  59  81 CALM      29.85S
OSU AIRPORT    FAIR      64  58  80 CALM      29.85S
BOLTON FIELD   FAIR      63  58  84 S3        29.86S
RICKENBACK AFB FAIR      62  61  94 MISG      29.85S
NEWARK         FAIR      59  58  96 CALM      29.86S
MARION         FAIR      65  57  75 S6        29.84S
LANCASTER      FAIR      63  61  93 CALM      29.86S
ZANESVILLE     FOG       61  60  97 S5        29.86F VSB 1/2
NEW PHILLY     FAIR      60  59  96 CALM      29.86F
$$




USA.gov is the U.S. government's official web portal to all federal, state and local government web resources and services.